Location: Avenches
(46.8809°N, 7.0410°E)
Time: 17:21:51
(UTC+00:00)

STARLINK-1219 - Pass Details

Date: 30 March 2020
Orbit: 549 x 551 km, 53.0° (Epoch: 26 May)

Event Time Altitude Azimuth Distance (km) Brightness Sun altitude
Rises 18:39:40 0° 262° (W) 2,729 8.6 -7.7°
Reaches altitude 10° 18:41:59 10° 268° (W) 1,837 7.7 -8.1°
Maximum altitude 18:46:01 46° 343° (NNW) 749 4.6 -8.7°
Drops below altitude 10° 18:50:04 10° 58° (ENE) 1,840 5.9 -9.4°
Enters shadow 18:51:17 - 62° (ENE) 2,310 6.4 -9.6°
